This is the latest recevied weather packets stored in our database for station/object F1PPH-1. If no packets are shown the sender has not sent any weather packets the latest 10 day(s).
| Time | Temp. | Humidity | Pressure | Rain* | Wind** | Luminosity | Snow |
|---|---|---|---|---|---|---|---|
| 1778072409 | 19.44° C | 61% | 1005.7 hPa | - | - | - | - |
| 1778069527 | 17.78° C | 62% | 1005.6 hPa | - | - | - | - |
| 1778066646 | 17.78° C | 62% | 1005.6 hPa | - | - | - | - |
| 1778063765 | 17.22° C | 63% | 1005.4 hPa | - | - | - | - |
| 1778060887 | 16.67° C | 63% | 1005.1 hPa | - | - | - | - |
| 1778058003 | 16.11° C | 64% | 1004.8 hPa | - | - | - | - |
| 1778055123 | 14.44° C | 64% | 1004.5 hPa | - | - | - | - |
| 1778052245 | 13.89° C | 65% | 1004.2 hPa | - | - | - | - |
| 1778049376 | 13.33° C | 64% | 1003.6 hPa | - | - | - | - |
| 1778046482 | 12.78° C | 64% | 1003.3 hPa | - | - | - | - |
| 1778042883 | 13.33° C | 64% | 1002.9 hPa | - | - | - | - |
| 1778040002 | 13.33° C | 64% | 1002.7 hPa | - | - | - | - |
| 1778036414 | 13.89° C | 64% | 1002.8 hPa | - | - | - | - |
| 1778032834 | 13.89° C | 64% | 1002.7 hPa | - | - | - | - |
| 1778029233 | 13.89° C | 64% | 1003 hPa | - | - | - | - |
| 1778026353 | 13.89° C | 64% | 1003.2 hPa | - | - | - | - |
| 1778023476 | 13.89° C | 64% | 1003.2 hPa | - | - | - | - |
| 1778020593 | 14.44° C | 64% | 1003.3 hPa | - | - | - | - |
| 1778017712 | 14.44° C | 64% | 1003.3 hPa | - | - | - | - |
| 1778014112 | 15° C | 64% | 1003.7 hPa | - | - | - | - |
| 1778010511 | 15° C | 63% | 1003.4 hPa | - | - | - | - |
| 1778006911 | 15.56° C | 63% | 1003 hPa | - | - | - | - |
| 1778003311 | 15.56° C | 63% | 1002.6 hPa | - | - | - | - |
| 1777999715 | 16.11° C | 63% | 1002.7 hPa | - | - | - | - |
| 1777996110 | 16.67° C | 63% | 1002.5 hPa | - | - | - | - |
* Rain since midnight (hover to see other rain measurements)
** Current wind speed in m/s (hover to see current wind gust speed)